W4SNA-3 Weather Reports


Display with metric or nautical units.
time (UTC)temp
F
wind
direction
speed
MPH
gust
MPH
rain 1hr
in
rain 24hr
in
rain mn
in
humidity
%
barometer
mb
20260905163155 83 14 1.0 7.0 0.00 0.00 0.00 72 1016.2
20260905162715 84 0 0.0 5.0 0.00 0.00 0.00 71 1015.9
20260905162154 84 0 0.0 5.0 0.00 0.00 0.00 71 1016.0
20260905161654 84 0 0.0 5.0 0.00 0.00 0.00 71 1015.9
20260905161211 84 298 1.0 6.0 0.00 0.00 0.00 70 1015.6
20260905160700 85 0 0.0 6.0 0.00 0.00 0.00 70 1015.6
20260905160201 84 291 1.0 5.0 0.00 0.00 0.00 69 1015.6
20260905155655 85 323 2.0 5.0 0.00 0.00 0.00 69 1015.7
20260905155154 85 289 1.0 5.0 0.00 0.00 0.00 68 1015.8
20260905154716 85 0 0.0 5.0 0.00 0.00 0.00 71 1015.8
20260905154154 85 323 1.0 7.0 0.00 0.00 0.00 69 1015.8
20260905153655 85 342 3.0 7.0 0.00 0.00 0.00 68 1015.7
20260905153156 85 1 2.0 5.0 0.00 0.00 0.00 69 1015.7
20260905152654 84 315 2.0 5.0 0.00 0.00 0.00 69 1015.6
20260905152154 84 338 1.0 5.0 0.00 0.00 0.00 72 1015.6
20260905151654 83 330 2.0 7.0 0.00 0.00 0.00 72 1015.5
20260905151155 83 340 2.0 7.0 0.00 0.00 0.00 73 1015.5
20260905150343 83 311 3.0 7.0 0.00 0.00 0.00 71 1015.4
20260905145900 83 317 3.0 7.0 0.00 0.00 0.00 70 1015.3
20260905145334 84 312 2.0 5.0 0.00 0.00 0.00 70 1015.3
20260905144834 84 314 3.0 6.0 0.00 0.00 0.00 69 1015.2
20260905144343 84 307 2.0 7.0 0.00 0.00 0.00 70 1015.2
20260905143834 84 320 3.0 7.0 0.00 0.00 0.00 70 1015.3
20260905143334 84 328 3.0 6.0 0.00 0.00 0.00 70 1015.2
20260905142847 83 311 4.0 7.0 0.00 0.00 0.00 70 1015.4
20260905142334 83 312 2.0 7.0 0.00 0.00 0.00 71 1015.4
20260905141834 83 318 3.0 7.0 0.00 0.00 0.00 71 1015.3
20260905141334 82 318 3.0 6.0 0.00 0.00 0.00 72 1015.3
20260905140834 82 316 3.0 10.0 0.00 0.00 0.00 72 1015.3
20260905140334 82 316 3.0 10.0 0.00 0.00 0.00 72 1015.2
20260905135834 82 321 3.0 10.0 0.00 0.00 0.00 72 1015.1
20260905135334 81 322 3.0 10.0 0.00 0.00 0.00 73 1015.1
20260905134836 81 314 3.0 9.0 0.00 0.00 0.00 74 1015.0
20260905134334 81 318 3.0 6.0 0.00 0.00 0.00 73 1015.0
20260905133836 81 318 4.0 7.0 0.00 0.00 0.00 74 1015.0
20260905133334 80 312 3.0 7.0 0.00 0.00 0.00 74 1015.0
20260905132834 80 314 3.0 7.0 0.00 0.00 0.00 74 1015.2
20260905132336 80 311 4.0 7.0 0.00 0.00 0.00 74 1015.2
20260905131839 80 317 3.0 6.0 0.00 0.00 0.00 75 1015.2
20260905131334 79 314 3.0 7.0 0.00 0.00 0.00 76 1015.2
20260905130838 79 313 3.0 7.0 0.00 0.00 0.00 76 1015.2
20260905130336 79 313 3.0 6.0 0.00 0.00 0.00 77 1015.4
20260905125835 78 315 3.0 6.0 0.00 0.00 0.00 77 1015.4
20260905125334 78 323 3.0 5.0 0.00 0.00 0.00 77 1015.4
20260905124511 77 310 2.0 5.0 0.00 0.00 0.00 78 1015.5
20260905124011 77 318 3.0 5.0 0.00 0.00 0.00 79 1015.5
20260905123511 76 309 3.0 5.0 0.00 0.00 0.00 80 1015.6
20260905122719 75 313 3.0 6.0 0.00 0.00 0.00 81 1015.7
20260905122220 75 311 3.0 6.0 0.00 0.00 0.00 81 1015.6
20260905121717 74 312 3.0 7.0 0.00 0.00 0.00 82 1015.8
20260905121219 73 310 3.0 7.0 0.00 0.00 0.00 83 1015.7
20260905120718 73 312 3.0 6.0 0.00 0.00 0.00 83 1015.7
20260905120218 73 314 3.0 6.0 0.00 0.00 0.00 84 1015.5
20260905115720 72 310 3.0 6.0 0.00 0.00 0.00 85 1015.4
20260905115231 72 317 3.0 6.0 0.00 0.00 0.00 85 1015.3
20260905114725 72 321 3.0 6.0 0.00 0.00 0.00 85 1015.4
20260905114221 72 317 3.0 6.0 0.00 0.00 0.00 85 1015.3
20260905113719 72 315 3.0 6.0 0.00 0.00 0.00 85 1015.2
20260905113220 71 315 3.0 6.0 0.00 0.00 0.00 85 1015.1
20260905112720 71 314 3.0 7.0 0.00 0.00 0.00 84 1015.2
20260905112218 71 311 3.0 7.0 0.00 0.00 0.00 84 1015.1
20260905111717 71 318 3.0 6.0 0.00 0.00 0.00 84 1015.2
20260905111217 71 316 3.0 6.0 0.00 0.00 0.00 84 1015.1
20260905110720 71 312 3.0 6.0 0.00 0.00 0.00 84 1015.1
20260905110217 71 313 3.0 6.0 0.00 0.00 0.00 84 1015.1
20260905105717 71 310 3.0 6.0 0.00 0.00 0.00 84 1015.2
20260905105228 72 312 3.0 6.0 0.00 0.00 0.00 84 1015.0
20260905104717 72 318 3.0 6.0 0.00 0.00 0.00 83 1015.0
20260905104219 72 315 3.0 6.0 0.00 0.00 0.00 83 1015.1
20260905103717 72 315 3.0 6.0 0.00 0.00 0.00 83 1015.0
20260905103220 72 317 3.0 5.0 0.00 0.00 0.00 83 1015.1
20260905102217 71 325 3.0 5.0 0.00 0.00 0.00 84 1015.1
20260905101007 71 310 2.0 5.0 0.00 0.00 0.00 84 1015.1
20260905100507 71 316 2.0 5.0 0.00 0.00 0.00 83 1015.0
20260905095807 71 313 2.0 5.0 0.00 0.00 0.00 83 1014.9
20260905095307 71 316 2.0 5.0 0.00 0.00 0.00 83 1015.0
20260905094808 71 316 2.0 5.0 0.00 0.00 0.00 83 1014.9
20260905094310 71 318 3.0 5.0 0.00 0.00 0.00 83 1014.9
20260905093627 71 312 2.0 6.0 0.00 0.00 0.00 83 1014.9
20260905093126 71 316 2.0 6.0 0.00 0.00 0.00 83 1015.0
20260905092627 71 342 2.0 4.0 0.00 0.00 0.00 83 1014.9
20260905092126 71 317 2.0 5.0 0.00 0.00 0.00 83 1014.8
20260905091626 71 315 2.0 5.0 0.00 0.00 0.00 83 1014.8
20260905091126 71 316 2.0 4.0 0.00 0.00 0.00 82 1014.8
20260905090323 71 315 2.0 5.0 0.00 0.00 0.00 82 1014.8
20260905085821 71 316 2.0 5.0 0.00 0.00 0.00 82 1015.0
20260905085329 71 318 2.0 5.0 0.00 0.00 0.00 82 1014.9
20260905084822 71 323 2.0 5.0 0.00 0.00 0.00 82 1015.0
20260905084320 71 323 2.0 5.0 0.00 0.00 0.00 82 1015.0
20260905083820 71 324 2.0 4.0 0.00 0.00 0.00 82 1015.2
20260905083320 71 324 2.0 4.0 0.00 0.00 0.00 82 1015.3
20260905082858 71 325 2.0 4.0 0.00 0.00 0.00 82 1015.3
20260905082336 71 325 2.0 3.0 0.00 0.00 0.00 81 1015.4
20260905081831 71 325 1.0 4.0 0.00 0.00 0.00 82 1015.5
20260905081339 71 325 1.0 4.0 0.00 0.00 0.00 82 1015.7
20260905080824 71 325 1.0 3.0 0.00 0.00 0.00 82 1015.7
20260905080320 71 325 1.0 3.0 0.00 0.00 0.00 81 1015.7
20260905075820 71 325 1.0 3.0 0.00 0.00 0.00 82 1015.7
20260905075007 72 325 1.0 3.0 0.00 0.00 0.00 81 1015.8
20260905074507 72 325 1.0 3.0 0.00 0.00 0.00 81 1015.9
20260905074007 72 325 1.0 3.0 0.00 0.00 0.00 81 1015.9
20260905073518 72 325 1.0 3.0 0.00 0.00 0.00 81 1016.0
20260905073007 72 325 1.0 3.0 0.00 0.00 0.00 81 1015.9
20260905072509 72 325 1.0 3.0 0.00 0.00 0.00 81 1016.0
20260905072007 72 325 1.0 3.0 0.00 0.00 0.00 81 1016.2
20260905071507 72 325 1.0 4.0 0.00 0.00 0.00 81 1016.1
20260905071009 72 325 2.0 4.0 0.00 0.00 0.00 81 1016.2
20260905070519 72 325 2.0 4.0 0.00 0.00 0.00 81 1016.3
20260905070008 72 324 2.0 4.0 0.00 0.00 0.00 81 1016.4
20260905065509 72 324 2.0 4.0 0.00 0.00 0.00 81 1016.5
20260905065009 72 325 2.0 4.0 0.00 0.00 0.00 81 1016.5
20260905064507 72 325 2.0 4.0 0.00 0.00 0.00 81 1016.6
20260905064007 72 325 1.0 4.0 0.00 0.00 0.00 81 1016.6
20260905063514 72 325 1.0 4.0 0.00 0.00 0.00 81 1016.6
20260905063008 72 325 2.0 4.0 0.00 0.00 0.00 81 1016.7
20260905062507 72 325 2.0 4.0 0.00 0.00 0.00 81 1016.7
20260905062007 72 325 2.0 4.0 0.00 0.00 0.00 81 1016.9
20260905061507 72 326 1.0 4.0 0.00 0.00 0.00 81 1016.9
20260905060655 72 327 2.0 4.0 0.00 0.00 0.00 81 1017.0
20260905060158 72 327 2.0 4.0 0.00 0.00 0.00 81 1017.0
20260905055655 72 328 2.0 4.0 0.00 0.00 0.00 81 1017.1
20260905055155 72 328 2.0 4.0 0.00 0.00 0.00 81 1017.2
20260905054656 72 328 2.0 4.0 0.00 0.00 0.00 81 1017.2
20260905054156 72 329 2.0 4.0 0.00 0.00 0.00 81 1017.2
20260905053500 72 329 2.0 4.0 0.00 0.00 0.00 81 1017.4
20260905053004 72 329 2.0 4.0 0.00 0.00 0.00 81 1017.4
20260905052501 72 329 2.0 4.0 0.00 0.00 0.00 81 1017.4
20260905052002 73 329 2.0 4.0 0.00 0.00 0.00 81 1017.6
20260905051500 73 329 2.0 4.0 0.00 0.00 0.00 81 1017.6
20260905051003 73 329 2.0 4.0 0.00 0.00 0.00 81 1017.7
20260905050500 73 329 1.0 3.0 0.00 0.00 0.00 81 1017.8
20260905050001 72 329 2.0 3.0 0.00 0.00 0.00 81 1017.8
20260905045500 72 329 1.0 3.0 0.00 0.00 0.00 81 1017.8
20260905045005 72 330 1.0 3.0 0.00 0.00 0.00 82 1017.9
20260905044504 72 330 1.0 3.0 0.00 0.00 0.00 82 1017.8
20260905044000 72 330 1.0 3.0 0.00 0.00 0.00 82 1017.9
20260905043344 72 330 1.0 3.0 0.00 0.00 0.00 82 1018.1
20260905042844 72 330 1.0 3.0 0.00 0.00 0.00 82 1018.1
20260905042344 72 330 1.0 3.0 0.00 0.00 0.00 81 1018.1
20260905041441 72 330 1.0 4.0 0.00 0.00 0.00 80 1018.2
20260905040942 72 331 2.0 4.0 0.00 0.00 0.00 80 1018.1
20260905040445 73 331 1.0 3.0 0.00 0.00 0.00 79 1018.2
20260905035941 73 331 1.0 2.0 0.00 0.00 0.00 79 1018.2
20260905035441 73 0 0.0 0.0 0.00 0.00 0.00 79 1018.3
20260905034956 73 0 0.0 0.0 0.00 0.00 0.00 79 1018.3
20260905034614 73 0 0.0 0.0 0.00 0.00 0.00 78 1018.4
20260905033941 73 0 0.0 0.0 0.00 0.00 0.00 78 1018.4
20260905033441 73 0 0.0 0.0 0.00 0.00 0.00 77 1018.5
20260905033004 73 0 0.0 1.0 0.00 0.00 0.00 77 1018.5
20260905032441 73 0 0.0 1.0 0.00 0.00 0.00 77 1018.4
20260905031942 73 0 0.0 1.0 0.00 0.00 0.00 77 1018.2
20260905031441 73 0 0.0 1.0 0.00 0.00 0.00 77 1018.2
20260905030943 73 0 0.0 1.0 0.00 0.00 0.00 78 1018.1
20260905030441 73 0 0.0 0.0 0.00 0.00 0.00 78 1018.0
20260905025941 73 0 0.0 0.0 0.00 0.00 0.00 78 1017.8
20260905025441 73 0 0.0 2.0 0.00 0.00 0.00 77 1017.7
20260905024941 73 0 0.0 4.0 0.00 0.00 0.00 77 1017.7
20260905024532 73 326 1.0 4.0 0.00 0.00 0.00 77 1017.7
20260905023957 73 0 0.0 2.0 0.00 0.00 0.00 79 1017.6
20260905023441 73 0 0.0 1.0 0.00 0.00 0.00 81 1017.3
20260905022941 73 0 0.0 0.0 0.00 0.00 0.00 81 1017.1
20260905022441 73 0 0.0 1.0 0.00 0.00 0.00 81 1017.1
20260905021941 73 0 0.0 2.0 0.00 0.00 0.00 81 1017.0
20260905021441 73 0 0.0 2.0 0.00 0.00 0.00 81 1016.8
20260905020947 73 0 0.0 2.0 0.00 0.00 0.00 81 1016.7
20260905020441 73 319 1.0 2.0 0.00 0.00 0.00 81 1016.6
20260905015941 73 0 0.0 0.0 0.00 0.00 0.00 81 1016.4
20260905015441 73 0 0.0 2.0 0.00 0.00 0.00 81 1016.5
20260905014941 73 0 0.0 3.0 0.00 0.00 0.00 81 1016.5
20260905014441 73 319 1.0 3.0 0.00 0.00 0.00 81 1016.5
20260905013942 73 319 1.0 4.0 0.00 0.00 0.00 82 1016.6
20260905013441 73 319 2.0 4.0 0.00 0.00 0.00 82 1016.6
20260905012944 73 319 1.0 3.0 0.00 0.00 0.00 82 1016.7
20260905012152 73 319 1.0 3.0 0.00 0.00 0.00 82 1016.8
20260905011630 73 319 1.0 4.0 0.00 0.00 0.00 82 1016.8
20260905011124 73 319 1.0 4.0 0.00 0.00 0.00 81 1016.7
20260905010623 73 319 1.0 3.0 0.00 0.00 0.00 81 1016.9
20260905010124 73 319 1.0 3.0 0.00 0.00 0.00 81 1016.8
20260905005630 73 319 1.0 3.0 0.00 0.00 0.00 80 1016.7
20260905005123 73 319 1.0 4.0 0.00 0.00 0.00 80 1016.8
20260905004623 73 319 2.0 4.0 0.00 0.00 0.00 80 1016.9
20260905004124 73 321 2.0 4.0 0.00 0.00 0.00 80 1017.0
20260905003623 73 324 2.0 5.0 0.00 0.00 0.00 81 1017.0
20260905003123 73 326 2.0 5.0 0.00 0.00 0.00 81 1017.0
20260905002222 73 325 2.0 4.0 0.00 0.00 0.00 80 1017.0
20260905001727 73 327 2.0 4.0 0.00 0.00 0.00 80 1017.1
20260905001222 74 328 2.0 4.0 0.00 0.00 0.00 80 1017.3
20260905000722 74 329 1.0 4.0 0.00 0.00 0.00 80 1017.3
20260905000222 74 332 2.0 3.0 0.00 0.00 0.00 79 1017.3
20260904235519 74 331 2.0 5.0 0.00 0.00 0.00 79 1017.4
20260904235019 74 355 2.0 4.0 0.00 0.00 0.00 79 1017.2
20260904234529 75 5 2.0 4.0 0.00 0.00 0.00 79 1017.0
20260904234019 75 337 2.0 4.0 0.00 0.00 0.00 79 1017.2
20260904233519 75 334 2.0 4.0 0.00 0.00 0.00 78 1017.2
20260904232923 75 319 2.0 4.0 0.00 0.00 0.00 78 1017.3
20260904232424 75 321 2.0 4.0 0.00 0.00 0.00 78 1017.3
20260904231923 76 321 2.0 4.0 0.00 0.00 0.00 77 1017.2
20260904231423 76 322 2.0 4.0 0.00 0.00 0.00 77 1017.2
20260904230923 76 323 2.0 4.0 0.00 0.00 0.00 77 1017.2
20260904230423 76 323 2.0 4.0 0.00 0.00 0.00 77 1017.1
20260904225508 76 323 2.0 4.0 0.00 0.00 0.00 77 1017.1
20260904225016 76 323 1.0 4.0 0.00 0.00 0.00 77 1017.3
20260904224508 76 323 2.0 4.0 0.00 0.00 0.00 77 1017.2
20260904224008 76 323 2.0 4.0 0.00 0.00 0.00 77 1017.3
20260904223513 76 324 2.0 4.0 0.00 0.00 0.00 76 1017.3
20260904223024 76 324 2.0 4.0 0.00 0.00 0.00 77 1017.2
20260904222529 77 329 2.0 4.0 0.00 0.00 0.00 79 1017.4
20260904222008 77 335 2.0 4.0 0.00 0.00 0.00 80 1017.4
20260904221508 78 336 1.0 3.0 0.00 0.00 0.00 80 1017.4
20260904221018 78 38 2.0 3.0 0.00 0.00 0.00 80 1017.3
20260904220122 79 108 1.0 2.0 0.00 0.00 0.00 79 1017.3
20260904215622 80 0 0.0 2.0 0.00 0.00 0.00 77 1017.3
20260904215132 81 0 0.0 2.0 0.00 0.00 0.00 76 1017.3
20260904214622 81 0 0.0 2.0 0.00 0.00 0.00 74 1017.3
20260904214123 82 0 0.0 2.0 0.00 0.00 0.00 72 1017.5
20260904213623 82 0 0.0 0.0 0.00 0.00 0.00 72 1017.5
20260904213136 82 0 0.0 0.0 0.00 0.00 0.00 72 1018.3
20260904212637 83 0 0.0 0.0 0.00 0.00 0.00 72 1018.1
20260904212129 83 0 0.0 1.0 0.00 0.00 0.00 72 1018.1
20260904211622 83 0 0.0 1.0 0.00 0.00 0.00 71 1017.9
20260904211123 84 0 0.0 2.0 0.00 0.00 0.00 70 1017.9
20260904210629 84 0 0.0 2.0 0.00 0.00 0.00 70 1018.0
20260904210122 84 0 0.0 2.0 0.00 0.00 0.00 71 1017.9
20260904205622 85 0 0.0 1.0 0.00 0.00 0.00 69 1017.9
20260904205122 85 0 0.0 1.0 0.00 0.00 0.00 65 1018.0
20260904204622 85 0 0.0 2.0 0.00 0.00 0.00 65 1018.1
20260904204129 85 0 0.0 3.0 0.00 0.00 0.00 66 1017.9
20260904203622 86 65 1.0 3.0 0.00 0.00 0.00 65 1017.8
20260904203122 86 0 0.0 2.0 0.00 0.00 0.00 68 1017.8
20260904202622 85 0 0.0 2.0 0.00 0.00 0.00 69 1017.7
20260904202122 85 0 0.0 2.0 0.00 0.00 0.00 70 1018.0
20260904201622 85 0 0.0 3.0 0.00 0.00 0.00 69 1018.0
20260904201122 85 66 1.0 3.0 0.00 0.00 0.00 69 1017.8
20260904200623 85 72 1.0 3.0 0.00 0.00 0.00 71 1017.7
20260904200129 86 77 1.0 2.0 0.00 0.00 0.00 70 1017.8
20260904195629 86 0 0.0 2.0 0.00 0.00 0.00 69 1017.9
20260904195122 86 0 0.0 1.0 0.00 0.00 0.00 69 1018.0
20260904194623 87 0 0.0 0.0 0.00 0.00 0.00 69 1018.1
20260904194123 87 0 0.0 0.0 0.00 0.00 0.00 68 1018.1
20260904193419 87 0 0.0 1.0 0.00 0.00 0.00 67 1018.1
20260904192928 87 0 0.0 2.0 0.00 0.00 0.00 67 1018.2
20260904192420 88 0 0.0 2.0 0.00 0.00 0.00 65 1018.3
20260904191443 88 0 0.0 2.0 0.00 0.00 0.00 64 1018.3
20260904190943 88 0 0.0 2.0 0.00 0.00 0.00 65 1018.4
20260904190456 88 0 0.0 2.0 0.00 0.00 0.00 63 1018.5
20260904190006 89 0 0.0 2.0 0.00 0.00 0.00 62 1018.6
20260904185443 89 0 0.0 2.0 0.00 0.00 0.00 61 1018.7
20260904184943 90 0 0.0 2.0 0.00 0.00 0.00 61 1018.8
20260904184443 90 0 0.0 3.0 0.00 0.00 0.00 62 1018.7
20260904183943 90 0 0.0 3.0 0.00 0.00 0.00 60 1018.9
20260904183443 90 0 0.0 2.0 0.00 0.00 0.00 65 1018.9
20260904182950 90 0 0.0 2.0 0.00 0.00 0.00 61 1018.9
20260904182443 90 0 0.0 2.0 0.00 0.00 0.00 61 1018.9
20260904182023 90 0 0.0 2.0 0.00 0.00 0.00 62 1019.2
20260904181515 90 0 0.0 2.0 0.00 0.00 0.00 62 1019.3
20260904180830 90 0 0.0 2.0 0.00 0.00 0.00 62 1019.4
20260904180335 90 0 0.0 3.0 0.00 0.00 0.00 61 1019.4
20260904175832 90 0 0.0 3.0 0.00 0.00 0.00 60 1019.6
20260904175338 90 0 0.0 2.0 0.00 0.00 0.00 60 1019.5
20260904174830 91 0 0.0 2.0 0.00 0.00 0.00 61 1019.5
20260904173703 91 0 0.0 3.0 0.00 0.00 0.00 59 1019.7
20260904173204 91 0 0.0 2.0 0.00 0.00 0.00 59 1019.6
20260904172231 91 0 0.0 5.0 0.00 0.00 0.00 59 1019.8
20260904171731 91 86 1.0 3.0 0.00 0.00 0.00 57 1019.9
20260904171240 91 0 0.0 3.0 0.00 0.00 0.00 58 1019.9
20260904170731 92 41 1.0 3.0 0.00 0.00 0.00 57 1019.8
20260904170231 92 0 0.0 3.0 0.00 0.00 0.00 58 1019.9
20260904165731 92 0 0.0 3.0 0.00 0.00 0.00 57 1019.9
20260904165231 92 0 0.0 3.0 0.00 0.00 0.00 59 1020.1
20260904164742 92 55 1.0 5.0 0.00 0.00 0.00 59 1020.1
20260904164231 92 61 1.0 5.0 0.00 0.00 0.00 58 1020.0
20260904163731 92 0 0.0 4.0 0.00 0.00 0.00 60 1020.0